THOR ABLESTAR DEB, 177

Orbit data source: Space-Track

THOR ABLESTAR DEB, 177 is space debris in LEO originally from a launch on Thu, 29 Jun 1961 UTC launched from the Air Force Eastern Test Range (AFETR). Debris objects in space refer to the collection of defunct objects orbiting the Earth. Examples of debris include non-operational satellites, rocket bodies, and fragments generated from explosions, collisions, or faulty payload assembly.

Loading next visibility...
Identifier
177, 1961-015BB
Orbit
LEO
Country
Flag of USUS
Related business
Manufacturer
Unknown
Mission
Spacecraft
Bus & Motor
Unknown
Mass
Unknown
Launch date (UTC)
1961-06-29 (65 years ago)
Launch vehicle
Unknown
Launch site
Air Force Eastern Test Range (AFETR)
Object type
Payload
Rocket body
Debris
Shape & HBR
Unknown shape, 0.2 m
Radar Cross Section
Medium (>0.1 m² and <1 m²)

Expand to show TLE details & history
Last TLE update: 7 hours ago

TLE from 7 hours ago
0 THOR ABLESTAR DEB
1   177U 61015BB  26129.80930872  .00000105  00000-0  92617-4 0  9990
2   177  66.6521 301.0966 0101614 119.6608 241.4648 14.14841737335732
Epoch: 2026-05-09T19:25Z
TLE epoch observation values (Epoch: 2026-05-09T19:25:24.273Z)
Latitude
0.00003°
Longitude
142.12406°
Altitude
880.566 km
Speed
7.394 km/s
True Right ascension
20h 04m 23s
True Declination
0° 00' 00"
Sunlit
Object was in daylight at epoch
Visualization orbit readout
Latitude
Unknown
Longitude
Unknown
Altitude
Unknown
Speed
Unknown
Apparent Right ascension
Unknown
Apparent Declination
Unknown
Sunlit
N/A
Visualization observer readout
Local Sidereal Time
10:47:49
Azimuth
Unknown
Elevation
Unknown
Doppler factor
Unknown
Orbital elements
Apogee altitude
914.601 km
Perigee altitude
767.883 km
Semi-major axis
7,219.379 km
Eccentricity
0.01016
Inclination
66.6521°
RAAN
301.0966°
Arg. of periapsis
119.6608°
True anomaly
240.44806°
Mean anomaly
241.4648°
Eccentric anomaly
240.95581°
Mean motion
3.53829 °/min
Orbital period
101.74 mins
BSTAR
0.000092617
Loading maneuver chart data...
Computing Atmospheric mass density...
Loading historical data...
Loading historical data...
Loading historical data...
Loading historical data...
Loading historical data...
Loading historical data...
Loading historical data...

Documentation

Showing up to 5 results
|